Location: Doverdale
(52.2833°N, 2.2000°W)
Time: 03:15:35
(UTC+00:00)

H-2A R/B - Pass Details

Date: 29 October 2020
Orbit: 577 x 656 km, 98.5° (Epoch: 27 November)

Event Time Altitude Azimuth Distance (km) Brightness Sun altitude
Rises 18:35:05 0° 6° (N) 2,855 5.4 -17.4°
Reaches altitude 10° 18:37:39 10° 351° (N) 1,935 4.7 -17.7°
Maximum altitude 18:40:49 22° 301° (WNW) 1,324 4.5 -18.2°
Drops below altitude 10° 18:43:57 10° 251° (WSW) 1,901 5.6 -18.7°
Sets 18:46:28 0° 236° (SW) 2,790 6.3 -19.1°
